Find Starlink 35544

NORAD ID: 65922 Int'l Des: 2025-225 Owner: SPXS Country: US Constellation: starlink operational
LEOCIRCULAR

Aktuelle Ansicht

3D-Globus wird geladen...

Über Starlink 35544

Beschreibung wird geladen...

Nächste Überflüge

Passes for default location (London). Set your location on the main map for personalized predictions.

Höhenverlauf

Loading altitude history...

Zweizeiliger Elementsatz

1 65922U 25225N 26159.54621169 .00026990 00000-0 80691-3 0 9990
2 65922 53.1576 103.3115 0000576 134.6102 225.4948 15.34405610 38321
Epoch: 8. Juni 2026 • Age: 11 hours

Aktueller Status

Höhe 465.7 km
Geschwindigkeit 7.63 km/s
Subsatellitenpunkt -10.10°S, 163.77°W
Startdatum 8. Okt. 2025
Alter 0.6 years
Typ internet

Technische Details

Klassifizierung Payload
Masse 575.00 kg
Trockenmasse 530.00 kg
Gesamtmasse 575.00 kg
Länge 0.30 m
Durchmesser 4.10 m
Spannweite 29.00 m
Form Box + pan
Hersteller SPXS
Bus-Typ Starlink V2MO
Phasenstatus In Orbit
Besitzer/Staat SPXS/US

Most Searched